User: anonymous   Login
Location: Unspecified
(0.0000°N, 0.0000°E)
Time: 20:38:46
(UTC+00:00)
Language:

ASTRA 1KR - Orbit

View from above orbital plane
View from above orbital plane
View from above satellite
View from above satellite

Ground track
Ground track

The orbit data is extracted from the following two-line orbital elements,

1 29055U 06012A   16275.09883245  .00000099  00000-0  00000+0 0  9997
2 29055   0.0548 276.8297 0004805 296.1550 212.0570  1.00273225 38185
Epoch (UTC): 01 October 2016 02:22:19
Eccentricity: 0.0004805
inclination: 0.0548°
perigee height: 35765 km
apogee height: 35806 km
right ascension of ascending node: 276.8297°
argument of perigee: 296.1550°
revolutions per day: 1.00273225
mean anomaly at epoch: 212.0570°
orbit number at epoch: 3818

The dashed part of the orbit path shows where the satellite is in the earth's shadow,  

DLR